Location: Unspecified
(52.1971°N, 0.0000°E)
Time: 21:14:29
(UTC+00:00)

YUBILEINY - Pass Details

Date: 14 December 2019
Orbit: 1478 x 1509 km, 82.5° (Epoch: 19 January)

Event Time Altitude Azimuth Distance (km) Brightness Sun altitude
Exits shadow 00:20:58 11° 351° (N) 3,523 ? -60.5°
Drops below altitude 10° 00:21:36 10° 355° (N) 3,632 ? -60.5°
Sets 00:26:04 0° 15° (NNE) 4,613 ? -60.4°
